Adelaide, South Australia

1:10 PM ACST on September 01, 2016 (GMT +0930)
Adelaide International

Weather History for YPAD - September, 2014

Change the Weather History Date:

Tuesday, September 2, 2014

  Actual Average Record
Temperature  
Mean Temperature 52 °F -  
Max Temperature 59 °F 64 °F 80 °F (2006)
Min Temperature 44 °F 48 °F 41 °F (2007)
Degree Days  
Heating Degree Days 14    
Growing Degree Days 2 (Base 50)    
Moisture  
Dew Point 42 °F    
Average Humidity 66    
Maximum Humidity 87    
Minimum Humidity 48    
Precipitation  
Precipitation 0.01 in 0.05 in - ()
Sea Level Pressure  
Sea Level Pressure 30.23 in    
Wind  
Wind Speed 12 mph ()    
Max Wind Speed 22 mph    
Max Gust Speed 32 mph    
Visibility 6.9 miles    
Events Rain    
Averages and records for this station are not official NWS values.
T = Trace of Precipitation, MM = Missing Value Source: Averaged Metar Reports

Daily Weather History Graph

Daily Weather History Graph

Search for Another Location

Airport or City:

Trip Planner

Search our weather history database for the weather conditions in past years. The results will help you decide how hot, cold, wet, or windy it might be!

Date:

Astronomy

Sep. 02, 2014 Rise Set
Actual Time 6:34 AM ACST 5:57 PM ACST
Civil Twilight 6:09 AM ACST 6:22 PM ACST
Nautical Twilight 5:39 AM ACST 6:52 PM ACST
Astronomical Twilight 5:10 AM ACST 7:21 PM ACST
Moon 10:54 AM ACST (9/2) No Moon Set
Length of Visible Light 12h 13m
Length of Day
11h 23m
Waxing Crescent, 46% of the Moon is Illuminated
Sep 2
Waxing Crescent
Sep 2
First Quarter
Sep 9
Full
Sep 16
Last Quarter
Sep 24
New

Hourly Weather History & Observations

Time (ACST) Temp. Windchill Dew Point Humidity Pressure Visibility Wind Dir Wind Speed Gust Speed Precip Events Conditions
12:00 AM 52 °F - 41 °F 57% 30.12 in 19 mi SW 21.9 mph - -   Partly Cloudy
12:00 AM 51.8 °F - 41.0 °F 67% 30.09 in 6.2 mi SW 21.9 mph - N/A   Partly Cloudy
12:30 AM 52 °F - 40 °F 54% 30.12 in - SW 18.4 mph - -  
12:30 AM 51.8 °F - 41.0 °F 67% 30.12 in 6.2 mi SW 18.4 mph - N/A   Scattered Clouds
1:00 AM 51.8 °F - 39.2 °F 62% 30.12 in 6.2 mi SSW 17.3 mph - N/A   Scattered Clouds
1:30 AM 51.8 °F - 39.2 °F 62% 30.12 in 6.2 mi South 12.7 mph - N/A   Mostly Cloudy
2:00 AM 51.8 °F - 37.4 °F 58% 30.12 in 6.2 mi SW 15.0 mph - N/A   Partly Cloudy
2:30 AM 51.8 °F - 39.2 °F 62% 30.12 in 6.2 mi SSW 13.8 mph - N/A   Mostly Cloudy
2:38 AM 50.0 °F - 41.0 °F 71% 30.12 in 6.2 mi SSW 18.4 mph 32.2 mph N/A   Mostly Cloudy
2:54 AM 51.8 °F - 42.8 °F 71% 30.12 in 6.2 mi SSW 15.0 mph - N/A   Mostly Cloudy
3:00 AM 51 °F - 40 °F 57% 30.14 in 19 mi SSW 15.0 mph - -   Partly Cloudy
3:00 AM 51.8 °F - 41.0 °F 67% 30.12 in 6.2 mi SSW 15.0 mph - N/A   Scattered Clouds
3:30 AM 52 °F - 40 °F 55% 30.15 in - SSE 6.9 mph - -  
3:30 AM 51.8 °F - 41.0 °F 67% 30.12 in 6.2 mi SSE 6.9 mph - N/A   Scattered Clouds
4:00 AM 51.8 °F - 42.8 °F 71% 30.15 in 6.2 mi SW 16.1 mph - N/A   Scattered Clouds
4:30 AM 51.8 °F - 39.2 °F 62% 30.15 in 6.2 mi South 8.1 mph - N/A   Partly Cloudy
5:00 AM 48.2 °F - 41.0 °F 76% 30.15 in 6.2 mi South 8.1 mph - N/A   Scattered Clouds
5:30 AM 48.2 °F - 41.0 °F 76% 30.18 in 6.2 mi South 8.1 mph - N/A   Partly Cloudy
6:00 AM 45 °F - 40 °F 78% 30.21 in 19 mi South 6.9 mph - -   Partly Cloudy
6:00 AM 44.6 °F 40.7 °F 41.0 °F 87% 30.21 in 6.2 mi South 6.9 mph - N/A   Scattered Clouds
6:30 AM 47 °F - 40 °F 71% 30.22 in - South 6.9 mph - -  
6:30 AM 46.4 °F 42.9 °F 41.0 °F 81% 30.21 in 6.2 mi South 6.9 mph - N/A   Scattered Clouds
7:00 AM 46.4 °F 43.5 °F 41.0 °F 81% 30.21 in 6.2 mi SSE 5.8 mph - N/A   Partly Cloudy
7:30 AM 50.0 °F - 42.8 °F 76% 30.24 in 6.2 mi South 5.8 mph - N/A   Partly Cloudy
8:00 AM 50.0 °F - 42.8 °F 76% 30.24 in 6.2 mi South 8.1 mph - N/A   Partly Cloudy
8:30 AM 53.6 °F - 42.8 °F 67% 30.27 in 6.2 mi South 8.1 mph - N/A   Partly Cloudy
9:00 AM 55 °F - 45 °F 59% 30.27 in 22 mi South 10.4 mph - -   Scattered Clouds
9:00 AM 55.4 °F - 44.6 °F 67% 30.27 in 6.2 mi South 10.4 mph - N/A   Partly Cloudy
9:30 AM 56 °F - 43 °F 51% 30.28 in - South 11.5 mph - -  
9:30 AM 55.4 °F - 42.8 °F 63% 30.27 in 6.2 mi South 11.5 mph - N/A   Scattered Clouds
10:00 AM 55.4 °F - 42.8 °F 63% 30.27 in 6.2 mi SSW 11.5 mph - N/A   Scattered Clouds
10:30 AM 57.2 °F - 42.8 °F 59% 30.27 in 6.2 mi SSW 11.5 mph - N/A   Scattered Clouds
11:00 AM 55.4 °F - 44.6 °F 67% 30.27 in 6.2 mi SW 13.8 mph - N/A   Scattered Clouds
11:30 AM 57.2 °F - 44.6 °F 63% 30.27 in 6.2 mi SW 15.0 mph - N/A   Scattered Clouds
12:00 PM 55 °F - 45 °F 61% 30.27 in 22 mi SW 11.5 mph - - Rain Light Rain Showers
12:00 PM 55.4 °F - 44.6 °F 67% 30.27 in 6.2 mi SW 11.5 mph - N/A   Scattered Clouds
12:30 PM 58 °F - 46 °F 54% 30.27 in - WSW 16.1 mph - -  
12:30 PM 57.2 °F - 46.4 °F 67% 30.27 in 6.2 mi WSW 16.1 mph - N/A Rain Light Rain Showers
1:00 PM 57.2 °F - 44.6 °F 63% 30.24 in 6.2 mi SW 17.3 mph - N/A   Scattered Clouds
1:30 PM 57.2 °F - 44.6 °F 63% 30.24 in 6.2 mi SW 17.3 mph - N/A   Scattered Clouds
2:00 PM 59.0 °F - 39.2 °F 48% 30.24 in 6.2 mi SSW 17.3 mph - N/A   Partly Cloudy
2:30 PM 59.0 °F - 39.2 °F 48% 30.24 in 6.2 mi SSW 17.3 mph - N/A Rain Light Rain Showers
3:00 PM 56 °F - 42 °F 50% 30.27 in 22 mi SW 6.9 mph - - Rain Light Rain Showers
3:00 PM 57.2 °F - 42.8 °F 59% 30.24 in 6.2 mi SW 6.9 mph - N/A   Scattered Clouds
3:30 PM 58 °F - 44 °F 49% 30.27 in - SW 13.8 mph - -  
3:30 PM 59.0 °F - 44.6 °F 59% 30.24 in 6.2 mi SW 13.8 mph - N/A   Scattered Clouds
4:00 PM 59.0 °F - 41.0 °F 51% 30.24 in 6.2 mi SW 17.3 mph - N/A   Partly Cloudy
4:30 PM 59.0 °F - 42.8 °F 55% 30.27 in 6.2 mi SW 13.8 mph - N/A   Partly Cloudy
5:00 PM 57.2 °F - 42.8 °F 59% 30.27 in 6.2 mi SW 13.8 mph - N/A   Partly Cloudy
5:30 PM 55.4 °F - 44.6 °F 67% 30.27 in 6.2 mi SSW 11.5 mph - N/A   Partly Cloudy
6:00 PM 55 °F - 41 °F 49% 30.29 in 25 mi SSW 10.4 mph - -   Scattered Clouds
6:00 PM 55.4 °F - 41.0 °F 58% 30.27 in 6.2 mi SSW 10.4 mph - N/A   Partly Cloudy
6:30 PM 53 °F - 42 °F 56% 30.30 in - SSE 9.2 mph - -  
6:30 PM 53.6 °F - 41.0 °F 62% 30.27 in - SSE 9.2 mph - N/A   Clear
7:00 PM 51.8 °F - 42.8 °F 71% 30.30 in 6.2 mi SSE 8.1 mph - N/A   Partly Cloudy
7:30 PM 51.8 °F - 42.8 °F 71% 30.30 in 6.2 mi South 9.2 mph - N/A   Partly Cloudy
8:00 PM 50.0 °F - 42.8 °F 76% 30.30 in 6.2 mi South 6.9 mph - N/A   Partly Cloudy
8:30 PM 50.0 °F - 42.8 °F 76% 30.33 in 6.2 mi South 4.6 mph - N/A   Partly Cloudy
9:00 PM 48 °F - 43 °F 76% 30.33 in 25 mi South 3.5 mph - -   Partly Cloudy
9:00 PM 48.2 °F - 42.8 °F 82% 30.33 in 6.2 mi South 3.5 mph - N/A   Partly Cloudy
9:30 PM 47 °F - 43 °F 79% 30.33 in - South 6.9 mph - -  
9:30 PM 48.2 °F - 42.8 °F 82% 30.33 in 6.2 mi South 6.9 mph - N/A   Partly Cloudy
10:00 PM 48.2 °F - 42.8 °F 82% 30.33 in 6.2 mi South 4.6 mph - N/A   Partly Cloudy
10:30 PM 48.2 °F - 42.8 °F 82% 30.33 in 6.2 mi SW 5.8 mph - N/A   Partly Cloudy
11:00 PM 46.4 °F 43.5 °F 42.8 °F 87% 30.30 in 6.2 mi South 5.8 mph - N/A   Partly Cloudy
11:30 PM 46.4 °F 45.2 °F 42.8 °F 87% 30.30 in 6.2 mi SSW 3.5 mph - N/A   Partly Cloudy